TPC724 CYXP-BGSF

Flight info

Callsign TPC724
Flight time 2h 27m
Altitude 9000
Route YXP DCT EPMAN/M028F090 DCT GIGOM DCT ASTOC DCT TESVO DCT KEFOP
Aircraft C208/L-SDFGR/C

Departure

Time 2026-04-30 01:42
Airport Pangnirtung Airport (CYXP)

Arrival

Time 2026-04-30 04:10
Airport Kangerlussuaq International Airport (BGSF)
Time Latitude Longitude Altitude Speed Heading
2026-04-30 01:20 66.14450 -65.71086 -43 ft 0 kts 23°
2026-04-30 01:30 66.14455 -65.71084 -43 ft 2 kts
2026-04-30 01:30 66.14469 -65.71110 -44 ft 1 kts 284°
2026-04-30 01:30 66.14469 -65.71111 -44 ft 0 kts 281°
2026-04-30 01:32 66.14470 -65.71126 -43 ft 1 kts 276°
2026-04-30 01:32 66.14466 -65.71197 -42 ft 6 kts 254°
2026-04-30 01:32 66.14460 -65.71275 -39 ft 0 kts 279°
2026-04-30 01:33 66.14497 -65.71274 -42 ft 13 kts 58°
2026-04-30 01:33 66.14505 -65.71167 -43 ft 0 kts 354°
2026-04-30 01:39 66.14520 -65.71165 -43 ft 8 kts 16°
2026-04-30 01:40 66.14565 -65.71024 -47 ft 12 kts 57°
2026-04-30 01:40 66.14607 -65.70827 -53 ft 13 kts 65°
2026-04-30 01:40 66.14645 -65.70613 -59 ft 10 kts 71°
2026-04-30 01:40 66.14662 -65.70560 -61 ft 0 kts 268°
2026-04-30 01:41 66.14661 -65.70567 -61 ft 0 kts 245°
2026-04-30 01:41 66.14642 -65.70657 -58 ft 26 kts 240°
2026-04-30 01:41 66.14462 -65.71499 -38 ft 80 kts 242°
2026-04-30 01:41 66.14171 -65.72900 83 ft 102 kts 240°
2026-04-30 01:42 66.13835 -65.74591 241 ft 116 kts 240°
2026-04-30 01:42 66.13427 -65.76282 624 ft 107 kts 239°
2026-04-30 01:42 66.13117 -65.77929 903 ft 111 kts 244°
2026-04-30 01:42 66.12742 -65.79595 1202 ft 112 kts 239°
2026-04-30 01:43 66.12277 -65.81287 1418 ft 120 kts 227°
2026-04-30 01:43 66.11792 -65.82905 1732 ft 119 kts 241°
2026-04-30 01:43 66.11422 -65.84657 2101 ft 113 kts 240°
2026-04-30 01:43 66.11085 -65.86450 2328 ft 120 kts 249°
2026-04-30 01:44 66.10722 -65.88259 2675 ft 115 kts 234°
2026-04-30 01:44 66.10371 -65.90044 2843 ft 126 kts 271°
2026-04-30 01:44 66.10847 -65.91808 3031 ft 124 kts 340°
2026-04-30 01:44 66.11633 -65.91596 3332 ft 119 kts 34°
2026-04-30 01:45 66.12192 -65.90176 3675 ft 113 kts 49°
2026-04-30 01:45 66.12673 -65.88672 3940 ft 115 kts 53°
2026-04-30 01:45 66.13127 -65.87033 4223 ft 115 kts 52°
2026-04-30 01:45 66.13557 -65.85359 4467 ft 118 kts 58°
2026-04-30 01:46 66.13937 -65.83569 4728 ft 118 kts 65°
2026-04-30 01:46 66.14173 -65.81639 4975 ft 119 kts 75°
2026-04-30 01:46 66.14302 -65.79587 5235 ft 121 kts 81°
2026-04-30 01:46 66.14365 -65.77521 5500 ft 122 kts 84°
2026-04-30 01:47 66.14390 -65.75433 5748 ft 124 kts 85°
2026-04-30 01:47 66.14396 -65.73264 6006 ft 125 kts 86°
2026-04-30 01:47 66.14391 -65.71126 6261 ft 126 kts 87°
2026-04-30 01:47 66.14381 -65.68951 6513 ft 127 kts 88°
2026-04-30 01:48 66.14368 -65.66773 6771 ft 127 kts 88°
2026-04-30 01:48 66.14353 -65.64614 7040 ft 127 kts 88°
2026-04-30 01:48 66.14339 -65.62421 7313 ft 127 kts 87°
2026-04-30 01:48 66.14325 -65.60232 7577 ft 127 kts 87°
2026-04-30 01:49 66.14311 -65.58066 7823 ft 128 kts 87°
2026-04-30 01:49 66.14294 -65.55849 8077 ft 129 kts 87°
2026-04-30 01:49 66.14278 -65.53629 8319 ft 130 kts 87°
2026-04-30 01:49 66.14260 -65.51427 8566 ft 131 kts 87°
2026-04-30 01:50 66.14243 -65.49155 8782 ft 134 kts 87°
2026-04-30 01:50 66.14226 -65.46727 8827 ft 148 kts 88°
2026-04-30 01:50 66.14204 -65.44085 8830 ft 160 kts 88°
2026-04-30 01:50 66.14176 -65.41266 8820 ft 167 kts 89°
2026-04-30 01:51 66.14147 -65.38396 8815 ft 170 kts 89°
2026-04-30 01:51 66.14118 -65.35460 8827 ft 171 kts 89°
2026-04-30 01:51 66.14091 -65.32541 8823 ft 171 kts 90°
2026-04-30 01:51 66.14063 -65.29610 8823 ft 170 kts 90°
2026-04-30 01:52 66.14035 -65.26705 8826 ft 171 kts 90°
2026-04-30 01:52 66.14008 -65.23772 8822 ft 170 kts 90°
2026-04-30 01:52 66.13978 -65.20850 8834 ft 169 kts 90°
2026-04-30 01:52 66.13950 -65.17978 8844 ft 169 kts 90°
2026-04-30 01:53 66.13920 -65.15063 8846 ft 170 kts 90°
2026-04-30 01:53 66.13890 -65.12138 8850 ft 170 kts 90°
2026-04-30 01:53 66.13859 -65.09247 8847 ft 170 kts 90°
2026-04-30 01:53 66.13829 -65.06319 8859 ft 170 kts 90°
2026-04-30 01:54 66.13796 -65.03419 8866 ft 170 kts 90°
2026-04-30 01:54 66.13764 -65.00478 8871 ft 171 kts 90°
2026-04-30 01:54 66.13731 -64.97579 8875 ft 171 kts 90°
2026-04-30 01:54 66.13696 -64.94632 8896 ft 171 kts 90°
2026-04-30 01:55 66.13663 -64.91721 8889 ft 171 kts 90°
2026-04-30 01:55 66.13627 -64.88767 8896 ft 170 kts 90°
2026-04-30 01:55 66.13593 -64.85888 8911 ft 169 kts 90°
2026-04-30 01:55 66.13557 -64.82992 8918 ft 170 kts 90°
2026-04-30 01:56 66.13521 -64.80067 8909 ft 168 kts 90°
2026-04-30 01:56 66.13483 -64.77206 8942 ft 168 kts 90°
2026-04-30 01:56 66.13447 -64.74294 8926 ft 169 kts 89°
2026-04-30 01:56 66.13409 -64.71423 8938 ft 169 kts 89°
2026-04-30 01:57 66.13371 -64.68502 8900 ft 170 kts 90°
2026-04-30 01:57 66.13334 -64.65621 8883 ft 169 kts 90°
2026-04-30 01:57 66.13294 -64.62713 8879 ft 169 kts 90°
2026-04-30 01:57 66.13254 -64.59811 8865 ft 169 kts 90°
2026-04-30 01:58 66.13214 -64.56938 8849 ft 169 kts 90°
2026-04-30 01:58 66.13173 -64.54025 8838 ft 169 kts 90°
2026-04-30 01:58 66.13132 -64.51154 8825 ft 168 kts 90°
2026-04-30 01:58 66.13090 -64.48283 8828 ft 168 kts 90°
2026-04-30 01:59 66.13004 -64.42504 8824 ft 169 kts 90°
2026-04-30 01:59 66.12960 -64.39613 8833 ft 169 kts 90°
2026-04-30 01:59 66.12916 -64.36738 8837 ft 169 kts 89°
2026-04-30 02:00 66.12870 -64.33818 8837 ft 169 kts 90°
2026-04-30 02:00 66.12826 -64.30931 8837 ft 169 kts 90°
2026-04-30 02:00 66.12781 -64.28018 8835 ft 169 kts 90°
2026-04-30 02:00 66.12735 -64.25149 8833 ft 169 kts 91°
2026-04-30 02:01 66.12688 -64.22232 8832 ft 169 kts 91°
2026-04-30 02:01 66.12640 -64.19330 8829 ft 169 kts 90°
2026-04-30 02:01 66.12593 -64.16473 8816 ft 169 kts 91°
2026-04-30 02:01 66.12540 -64.13582 8811 ft 169 kts 91°
2026-04-30 02:02 66.12492 -64.10669 8808 ft 169 kts 91°
2026-04-30 02:02 66.12444 -64.07777 8793 ft 168 kts 91°
2026-04-30 02:02 66.12394 -64.04923 8792 ft 168 kts 90°
2026-04-30 02:02 66.12344 -64.02042 8784 ft 168 kts 90°
2026-04-30 02:03 66.12293 -63.99173 8779 ft 168 kts 90°
2026-04-30 02:03 66.12241 -63.96268 8790 ft 168 kts 90°
2026-04-30 02:03 66.12196 -63.93394 8791 ft 169 kts 90°
2026-04-30 02:03 66.12143 -63.90515 8795 ft 169 kts 90°
2026-04-30 02:04 66.12089 -63.87593 8804 ft 170 kts 90°
2026-04-30 02:04 66.12035 -63.84717 8817 ft 170 kts 90°
2026-04-30 02:04 66.11980 -63.81788 8818 ft 170 kts 90°
2026-04-30 02:04 66.11925 -63.78888 8820 ft 170 kts 90°
2026-04-30 02:05 66.11868 -63.75996 8824 ft 169 kts 91°
2026-04-30 02:05 66.11812 -63.73090 8819 ft 169 kts 90°
2026-04-30 02:05 66.11755 -63.70203 8812 ft 169 kts 90°
2026-04-30 02:05 66.11698 -63.67329 8805 ft 169 kts 90°
2026-04-30 02:06 66.11641 -63.64467 8807 ft 168 kts 90°
2026-04-30 02:06 66.11582 -63.61565 8802 ft 168 kts 90°
2026-04-30 02:06 66.11525 -63.58707 8802 ft 168 kts 90°
2026-04-30 02:06 66.11465 -63.55841 8792 ft 167 kts 90°
2026-04-30 02:07 66.11408 -63.52997 8786 ft 167 kts 90°
2026-04-30 02:07 66.11348 -63.50115 8787 ft 168 kts 90°
2026-04-30 02:07 66.11288 -63.47274 8790 ft 168 kts 90°
2026-04-30 02:07 66.11227 -63.44397 8788 ft 168 kts 90°
2026-04-30 02:08 66.11165 -63.41519 8791 ft 168 kts 90°
2026-04-30 02:08 66.11103 -63.38648 8790 ft 168 kts 90°
2026-04-30 02:08 66.11041 -63.35777 8792 ft 167 kts 90°
2026-04-30 02:08 66.10978 -63.32931 8791 ft 167 kts 91°
2026-04-30 02:09 66.10915 -63.30056 8792 ft 167 kts 91°
2026-04-30 02:09 66.10850 -63.27194 8788 ft 167 kts 91°
2026-04-30 02:09 66.10786 -63.24364 8799 ft 167 kts 91°
2026-04-30 02:09 66.10721 -63.21500 8819 ft 168 kts 91°
2026-04-30 02:10 66.10654 -63.18610 8826 ft 169 kts 91°
2026-04-30 02:10 66.10588 -63.15709 8832 ft 170 kts 91°
2026-04-30 02:10 66.10519 -63.12789 8835 ft 171 kts 91°
2026-04-30 02:10 66.10452 -63.09896 8851 ft 171 kts 91°
2026-04-30 02:11 66.10382 -63.06962 8858 ft 172 kts 91°
2026-04-30 02:11 66.10313 -63.04032 8858 ft 172 kts 91°
2026-04-30 02:11 66.10242 -63.01095 8881 ft 172 kts 91°
2026-04-30 02:11 66.10171 -62.98156 8906 ft 170 kts 91°
2026-04-30 02:12 66.10100 -62.95275 8902 ft 170 kts 91°
2026-04-30 02:12 66.10029 -62.92373 8910 ft 169 kts 91°
2026-04-30 02:12 66.09956 -62.89499 8916 ft 169 kts 91°
2026-04-30 02:12 66.09884 -62.86607 8921 ft 168 kts 91°
2026-04-30 02:13 66.09811 -62.83727 8919 ft 168 kts 91°
2026-04-30 02:13 66.09739 -62.80877 8929 ft 168 kts 91°
2026-04-30 02:13 66.09667 -62.78021 8927 ft 168 kts 91°
2026-04-30 02:13 66.09593 -62.75168 8922 ft 168 kts 91°
2026-04-30 02:14 66.09518 -62.72286 8945 ft 167 kts 90°
2026-04-30 02:14 66.09444 -62.69446 8958 ft 169 kts 90°
2026-04-30 02:14 66.09368 -62.66543 8962 ft 169 kts 91°
2026-04-30 02:14 66.09292 -62.63637 8981 ft 169 kts 91°
2026-04-30 02:15 66.09215 -62.60763 8984 ft 170 kts 91°
2026-04-30 02:15 66.09137 -62.57855 8998 ft 170 kts 91°
2026-04-30 02:15 66.09058 -62.54941 9009 ft 170 kts 91°
2026-04-30 02:15 66.08980 -62.52066 9013 ft 170 kts 91°
2026-04-30 02:16 66.08900 -62.49153 9019 ft 170 kts 91°
2026-04-30 02:16 66.08820 -62.46280 9011 ft 169 kts 91°
2026-04-30 02:16 66.08740 -62.43391 9003 ft 168 kts 91°
2026-04-30 02:16 66.08659 -62.40523 8994 ft 168 kts 91°
2026-04-30 02:17 66.08579 -62.37682 8978 ft 167 kts 91°
2026-04-30 02:17 66.08498 -62.34805 8975 ft 167 kts 91°
2026-04-30 02:17 66.08417 -62.31985 8971 ft 167 kts 91°
2026-04-30 02:17 66.08335 -62.29138 8962 ft 167 kts 91°
2026-04-30 02:18 66.08253 -62.26298 8959 ft 167 kts 91°
2026-04-30 02:18 66.08170 -62.23438 8966 ft 167 kts 91°
2026-04-30 02:18 66.08086 -62.20573 8972 ft 168 kts 91°
2026-04-30 02:18 66.08002 -62.17702 8969 ft 169 kts 91°
2026-04-30 02:19 66.07916 -62.14823 8970 ft 169 kts 91°
2026-04-30 02:19 66.07830 -62.11967 8977 ft 169 kts 91°
2026-04-30 02:19 66.07744 -62.09056 8975 ft 169 kts 91°
2026-04-30 02:19 66.07657 -62.06206 8981 ft 168 kts 92°
2026-04-30 02:20 66.07570 -62.03351 8991 ft 168 kts 92°
2026-04-30 02:20 66.07481 -62.00454 8994 ft 169 kts 92°
2026-04-30 02:20 66.07394 -61.97596 8987 ft 168 kts 92°
2026-04-30 02:20 66.07304 -61.94718 8994 ft 168 kts 92°
2026-04-30 02:21 66.07215 -61.91865 8998 ft 168 kts 92°
2026-04-30 02:21 66.07124 -61.88979 9002 ft 168 kts 91°
2026-04-30 02:21 66.07034 -61.86124 9006 ft 168 kts 91°
2026-04-30 02:21 66.06942 -61.83241 9005 ft 168 kts 91°
2026-04-30 02:22 66.06851 -61.80396 9014 ft 168 kts 91°
2026-04-30 02:22 66.06759 -61.77510 9017 ft 168 kts 91°
2026-04-30 02:22 66.06667 -61.74659 9014 ft 168 kts 91°
2026-04-30 02:22 66.06574 -61.71769 9017 ft 168 kts 92°
2026-04-30 02:23 66.06480 -61.68917 9018 ft 168 kts 91°
2026-04-30 02:23 66.06387 -61.66064 9017 ft 168 kts 91°
2026-04-30 02:23 66.06290 -61.63175 9016 ft 168 kts 92°
2026-04-30 02:23 66.06196 -61.60339 9016 ft 168 kts 91°
2026-04-30 02:24 66.06100 -61.57464 9013 ft 167 kts 91°
2026-04-30 02:24 66.06004 -61.54639 9017 ft 167 kts 91°
2026-04-30 02:24 66.05907 -61.51771 9022 ft 168 kts 91°
2026-04-30 02:24 66.05811 -61.48928 9017 ft 168 kts 91°
2026-04-30 02:25 66.05713 -61.46069 9014 ft 168 kts 91°
2026-04-30 02:25 66.05615 -61.43187 9016 ft 168 kts 91°
2026-04-30 02:25 66.05516 -61.40352 9016 ft 168 kts 91°
2026-04-30 02:25 66.05417 -61.37490 9014 ft 168 kts 91°
2026-04-30 02:26 66.05316 -61.34623 9013 ft 168 kts 92°
2026-04-30 02:26 66.05217 -61.31782 9020 ft 168 kts 92°
2026-04-30 02:26 66.05115 -61.28912 9016 ft 168 kts 92°
2026-04-30 02:26 66.05016 -61.26084 9017 ft 168 kts 92°
2026-04-30 02:27 66.04913 -61.23207 9019 ft 168 kts 92°
2026-04-30 02:27 66.04810 -61.20350 9016 ft 168 kts 92°
2026-04-30 02:27 66.04708 -61.17512 9016 ft 168 kts 92°
2026-04-30 02:27 66.04604 -61.14643 9015 ft 167 kts 92°
2026-04-30 02:28 66.04501 -61.11813 9019 ft 167 kts 92°
2026-04-30 02:28 66.04395 -61.08955 9018 ft 167 kts 92°
2026-04-30 02:28 66.04292 -61.06142 9014 ft 167 kts 92°
2026-04-30 02:28 66.04187 -61.03281 9007 ft 167 kts 92°
2026-04-30 02:29 66.04081 -61.00465 9012 ft 166 kts 92°
2026-04-30 02:29 66.03976 -60.97650 9020 ft 167 kts 92°
2026-04-30 02:29 66.03869 -60.94774 9011 ft 167 kts 92°
2026-04-30 02:29 66.03763 -60.91965 9006 ft 167 kts 92°
2026-04-30 02:30 66.03654 -60.89109 9013 ft 167 kts 92°
2026-04-30 02:30 66.03547 -60.86300 9011 ft 167 kts 92°
2026-04-30 02:30 66.03438 -60.83444 9015 ft 167 kts 92°
2026-04-30 02:30 66.03329 -60.80630 9008 ft 166 kts 92°
2026-04-30 02:31 66.03219 -60.77808 9012 ft 166 kts 92°
2026-04-30 02:31 66.03110 -60.75013 9012 ft 165 kts 92°
2026-04-30 02:31 66.03001 -60.72196 9008 ft 164 kts 92°
2026-04-30 02:31 66.02891 -60.69425 9014 ft 164 kts 92°
2026-04-30 02:32 66.02782 -60.66628 9006 ft 164 kts 92°
2026-04-30 02:32 66.02673 -60.63865 9005 ft 164 kts 92°
2026-04-30 02:32 66.02561 -60.61074 9003 ft 164 kts 92°
2026-04-30 02:32 66.02450 -60.58303 8993 ft 163 kts 92°
2026-04-30 02:33 66.02339 -60.55533 8999 ft 163 kts 92°
2026-04-30 02:33 66.02228 -60.52772 8998 ft 163 kts 92°
2026-04-30 02:33 66.02116 -60.49983 8999 ft 163 kts 92°
2026-04-30 02:33 66.02004 -60.47238 8995 ft 163 kts 92°
2026-04-30 02:34 66.01891 -60.44479 8985 ft 162 kts 92°
2026-04-30 02:34 66.01777 -60.41724 9000 ft 162 kts 92°
2026-04-30 02:34 66.01664 -60.38979 9000 ft 163 kts 92°
2026-04-30 02:34 66.01549 -60.36202 8996 ft 163 kts 92°
2026-04-30 02:35 66.01434 -60.33444 8994 ft 162 kts 93°
2026-04-30 02:35 66.01319 -60.30698 8998 ft 162 kts 92°
2026-04-30 02:35 66.01205 -60.27959 8992 ft 162 kts 93°
2026-04-30 02:35 66.01086 -60.25174 8994 ft 162 kts 92°
2026-04-30 02:36 66.00972 -60.22440 8996 ft 162 kts 93°
2026-04-30 02:36 66.00855 -60.19692 8999 ft 163 kts 93°
2026-04-30 02:36 66.00738 -60.16931 8985 ft 163 kts 93°
2026-04-30 02:36 66.00620 -60.14171 8993 ft 163 kts 94°
2026-04-30 02:37 66.00500 -60.11381 8991 ft 163 kts 93°
2026-04-30 02:37 66.00379 -60.08602 8988 ft 163 kts 93°
2026-04-30 02:37 66.00258 -60.05853 8989 ft 163 kts 93°
2026-04-30 02:37 66.00138 -60.03094 8986 ft 163 kts 93°
2026-04-30 02:38 66.00034 -60.00329 8989 ft 162 kts 85°
2026-04-30 02:38 66.00279 -59.97681 8990 ft 160 kts 72°
2026-04-30 02:38 66.00577 -59.95044 8989 ft 160 kts 70°
2026-04-30 02:38 66.00890 -59.92418 8989 ft 160 kts 70°
2026-04-30 02:39 66.01204 -59.89800 8989 ft 161 kts 70°
2026-04-30 02:39 66.01516 -59.87176 8989 ft 161 kts 70°
2026-04-30 02:39 66.01829 -59.84532 8987 ft 161 kts 71°
2026-04-30 02:39 66.02140 -59.81896 8988 ft 161 kts 71°
2026-04-30 02:40 66.02448 -59.79269 8986 ft 160 kts 71°
2026-04-30 02:40 66.02755 -59.76647 8984 ft 160 kts 71°
2026-04-30 02:40 66.03061 -59.74029 8985 ft 160 kts 71°
2026-04-30 02:40 66.03370 -59.71376 8985 ft 160 kts 71°
2026-04-30 02:41 66.03675 -59.68760 8990 ft 160 kts 71°
2026-04-30 02:41 66.03979 -59.66132 8990 ft 160 kts 70°
2026-04-30 02:41 66.04288 -59.63482 8990 ft 161 kts 70°
2026-04-30 02:41 66.04591 -59.60861 8990 ft 161 kts 70°
2026-04-30 02:42 66.04899 -59.58193 8988 ft 161 kts 70°
2026-04-30 02:42 66.05202 -59.55577 8989 ft 161 kts 71°
2026-04-30 02:42 66.05511 -59.52905 8989 ft 161 kts 71°
2026-04-30 02:42 66.05815 -59.50264 8988 ft 161 kts 71°
2026-04-30 02:43 66.06117 -59.47627 8988 ft 161 kts 71°
2026-04-30 02:43 66.06422 -59.44967 8989 ft 161 kts 71°
2026-04-30 02:43 66.06722 -59.42343 8990 ft 161 kts 71°
2026-04-30 02:43 66.07024 -59.39694 8988 ft 161 kts 71°
2026-04-30 02:44 66.07328 -59.37037 8989 ft 160 kts 71°
2026-04-30 02:44 66.07627 -59.34405 8989 ft 160 kts 71°
2026-04-30 02:44 66.07927 -59.31765 8989 ft 160 kts 71°
2026-04-30 02:44 66.08227 -59.29110 8988 ft 160 kts 71°
2026-04-30 02:45 66.08527 -59.26475 8988 ft 160 kts 71°
2026-04-30 02:45 66.08826 -59.23829 8990 ft 161 kts 71°
2026-04-30 02:45 66.09123 -59.21199 8992 ft 161 kts 71°
2026-04-30 02:45 66.09424 -59.18533 8990 ft 161 kts 71°
2026-04-30 02:46 66.09722 -59.15880 8991 ft 161 kts 71°
2026-04-30 02:46 66.10023 -59.13197 8989 ft 161 kts 71°
2026-04-30 02:46 66.10321 -59.10540 8992 ft 161 kts 71°
2026-04-30 02:46 66.10616 -59.07898 8992 ft 161 kts 71°
2026-04-30 02:47 66.10913 -59.05238 8989 ft 161 kts 71°
2026-04-30 02:47 66.11211 -59.02563 8990 ft 161 kts 72°
2026-04-30 02:47 66.11505 -58.99926 8987 ft 161 kts 71°
2026-04-30 02:47 66.11800 -58.97257 8988 ft 160 kts 71°
2026-04-30 02:48 66.12094 -58.94617 8992 ft 161 kts 71°
2026-04-30 02:48 66.12386 -58.91980 8991 ft 161 kts 71°
2026-04-30 02:48 66.12682 -58.89290 8991 ft 161 kts 71°
2026-04-30 02:48 66.12974 -58.86639 8992 ft 161 kts 71°
2026-04-30 02:49 66.13270 -58.83957 8992 ft 162 kts 71°
2026-04-30 02:49 66.13565 -58.81282 8982 ft 162 kts 71°
2026-04-30 02:49 66.13857 -58.78621 8994 ft 162 kts 71°
2026-04-30 02:49 66.14153 -58.75933 8989 ft 162 kts 72°
2026-04-30 02:50 66.14441 -58.73286 8990 ft 162 kts 72°
2026-04-30 02:50 66.14732 -58.70615 8992 ft 162 kts 71°
2026-04-30 02:50 66.15024 -58.67931 8989 ft 161 kts 72°
2026-04-30 02:50 66.15314 -58.65266 8984 ft 161 kts 72°
2026-04-30 02:51 66.15603 -58.62597 8993 ft 161 kts 71°
2026-04-30 02:51 66.15891 -58.59934 8989 ft 161 kts 71°
2026-04-30 02:51 66.16179 -58.57271 8990 ft 161 kts 71°
2026-04-30 02:51 66.16464 -58.54633 8990 ft 160 kts 71°
2026-04-30 02:52 66.16751 -58.51966 8986 ft 161 kts 71°
2026-04-30 02:52 66.17040 -58.49278 8993 ft 161 kts 71°
2026-04-30 02:52 66.17326 -58.46619 8990 ft 161 kts 72°
2026-04-30 02:52 66.17615 -58.43939 8986 ft 161 kts 72°
2026-04-30 02:53 66.17897 -58.41287 8986 ft 161 kts 72°
2026-04-30 02:53 66.18184 -58.38599 8988 ft 161 kts 72°
2026-04-30 02:53 66.18471 -58.35905 8979 ft 161 kts 72°
2026-04-30 02:53 66.18755 -58.33239 8978 ft 161 kts 73°
2026-04-30 02:54 66.19041 -58.30539 8973 ft 161 kts 73°
2026-04-30 02:54 66.19323 -58.27873 8977 ft 161 kts 72°
2026-04-30 02:54 66.19606 -58.25190 8982 ft 161 kts 72°
2026-04-30 02:54 66.19888 -58.22509 8977 ft 161 kts 72°
2026-04-30 02:55 66.20167 -58.19865 8977 ft 161 kts 72°
2026-04-30 02:55 66.20450 -58.17184 8976 ft 161 kts 72°
2026-04-30 02:55 66.20731 -58.14507 8985 ft 161 kts 72°
2026-04-30 02:55 66.21013 -58.11816 8970 ft 161 kts 72°
2026-04-30 02:56 66.21295 -58.09127 8982 ft 162 kts 73°
2026-04-30 02:56 66.21577 -58.06428 8980 ft 162 kts 73°
2026-04-30 02:56 66.21859 -58.03722 8980 ft 162 kts 72°
2026-04-30 02:56 66.22137 -58.01041 8972 ft 162 kts 73°
2026-04-30 02:57 66.22418 -57.98335 8974 ft 161 kts 73°
2026-04-30 02:57 66.22696 -57.95655 8983 ft 161 kts 73°
2026-04-30 02:57 66.22974 -57.92963 8987 ft 162 kts 72°
2026-04-30 02:57 66.23254 -57.90256 8982 ft 162 kts 72°
2026-04-30 02:58 66.23532 -57.87556 8992 ft 162 kts 72°
2026-04-30 02:58 66.23807 -57.84869 8992 ft 163 kts 72°
2026-04-30 02:58 66.24085 -57.82160 8981 ft 162 kts 72°
2026-04-30 02:58 66.24364 -57.79440 8996 ft 162 kts 72°
2026-04-30 02:59 66.24641 -57.76743 9000 ft 163 kts 72°
2026-04-30 02:59 66.24922 -57.73988 9001 ft 163 kts 73°
2026-04-30 02:59 66.25201 -57.71255 8990 ft 164 kts 73°
2026-04-30 02:59 66.25477 -57.68543 8995 ft 164 kts 73°
2026-04-30 03:00 66.25755 -57.65799 8990 ft 164 kts 73°
2026-04-30 03:00 66.26033 -57.63039 9003 ft 165 kts 73°
2026-04-30 03:00 66.26311 -57.60283 8988 ft 165 kts 73°
2026-04-30 03:00 66.26585 -57.57568 8995 ft 164 kts 73°
2026-04-30 03:01 66.26862 -57.54800 8997 ft 163 kts 73°
2026-04-30 03:01 66.27136 -57.52080 8994 ft 163 kts 73°
2026-04-30 03:01 66.27408 -57.49370 8999 ft 163 kts 73°
2026-04-30 03:01 66.27683 -57.46619 8991 ft 163 kts 73°
2026-04-30 03:02 66.27953 -57.43907 8996 ft 163 kts 73°
2026-04-30 03:02 66.28229 -57.41151 8989 ft 164 kts 73°
2026-04-30 03:02 66.28499 -57.38444 8990 ft 164 kts 73°
2026-04-30 03:02 66.28772 -57.35696 8987 ft 164 kts 73°
2026-04-30 03:03 66.29042 -57.32969 8999 ft 164 kts 74°
2026-04-30 03:03 66.29587 -57.27451 8981 ft 165 kts 74°
2026-04-30 03:03 66.29859 -57.24674 8988 ft 164 kts 74°
2026-04-30 03:04 66.30128 -57.21937 8993 ft 165 kts 73°
2026-04-30 03:04 66.30401 -57.19161 9002 ft 165 kts 74°
2026-04-30 03:04 66.30671 -57.16404 8998 ft 165 kts 74°
2026-04-30 03:04 66.30943 -57.13625 8996 ft 166 kts 74°
2026-04-30 03:05 66.31211 -57.10858 8990 ft 165 kts 74°
2026-04-30 03:05 66.31484 -57.08053 8986 ft 165 kts 74°
2026-04-30 03:05 66.31750 -57.05309 8995 ft 165 kts 74°
2026-04-30 03:05 66.32017 -57.02558 8998 ft 165 kts 74°
2026-04-30 03:06 66.32285 -56.99782 8985 ft 165 kts 74°
2026-04-30 03:06 66.32552 -56.97015 8988 ft 165 kts 74°
2026-04-30 03:06 66.32819 -56.94238 8978 ft 165 kts 74°
2026-04-30 03:06 66.33086 -56.91457 8976 ft 164 kts 74°
2026-04-30 03:07 66.33350 -56.88700 8980 ft 164 kts 74°
2026-04-30 03:07 66.33612 -56.85974 8972 ft 164 kts 74°
2026-04-30 03:07 66.33875 -56.83220 8971 ft 164 kts 74°
2026-04-30 03:07 66.34138 -56.80465 8977 ft 164 kts 74°
2026-04-30 03:08 66.34399 -56.77713 8970 ft 164 kts 74°
2026-04-30 03:08 66.34662 -56.74950 8972 ft 164 kts 74°
2026-04-30 03:08 66.34923 -56.72201 8975 ft 164 kts 74°
2026-04-30 03:08 66.35184 -56.69428 8970 ft 164 kts 74°
2026-04-30 03:09 66.35445 -56.66662 8967 ft 164 kts 74°
2026-04-30 03:09 66.35700 -56.63948 8971 ft 163 kts 74°
2026-04-30 03:09 66.35959 -56.61190 8973 ft 163 kts 74°
2026-04-30 03:09 66.36216 -56.58440 8965 ft 163 kts 74°
2026-04-30 03:10 66.36472 -56.55698 8964 ft 163 kts 74°
2026-04-30 03:10 66.36728 -56.52956 8964 ft 163 kts 74°
2026-04-30 03:10 66.36986 -56.50200 8965 ft 163 kts 74°
2026-04-30 03:10 66.37241 -56.47468 8967 ft 163 kts 74°
2026-04-30 03:11 66.37495 -56.44720 8973 ft 163 kts 74°
2026-04-30 03:11 66.37753 -56.41943 8972 ft 164 kts 74°
2026-04-30 03:11 66.38007 -56.39190 8968 ft 163 kts 74°
2026-04-30 03:11 66.38259 -56.36448 8972 ft 163 kts 74°
2026-04-30 03:12 66.38513 -56.33678 8974 ft 164 kts 75°
2026-04-30 03:12 66.38766 -56.30920 8970 ft 164 kts 75°
2026-04-30 03:12 66.39018 -56.28164 8975 ft 164 kts 75°
2026-04-30 03:12 66.39271 -56.25400 8978 ft 164 kts 75°
2026-04-30 03:13 66.39523 -56.22638 8980 ft 164 kts 75°
2026-04-30 03:13 66.39777 -56.19859 8975 ft 164 kts 75°
2026-04-30 03:13 66.40027 -56.17102 8978 ft 164 kts 75°
2026-04-30 03:13 66.40275 -56.14360 8975 ft 164 kts 75°
2026-04-30 03:14 66.40525 -56.11591 8968 ft 163 kts 75°
2026-04-30 03:14 66.40773 -56.08843 8973 ft 163 kts 75°
2026-04-30 03:14 66.41022 -56.06085 8974 ft 163 kts 75°
2026-04-30 03:14 66.41268 -56.03349 8974 ft 163 kts 75°
2026-04-30 03:15 66.41516 -56.00573 8975 ft 163 kts 75°
2026-04-30 03:15 66.41762 -55.97818 8976 ft 163 kts 75°
2026-04-30 03:15 66.42007 -55.95066 8975 ft 163 kts 75°
2026-04-30 03:15 66.42255 -55.92275 8965 ft 164 kts 75°
2026-04-30 03:16 66.42502 -55.89506 8974 ft 164 kts 75°
2026-04-30 03:16 66.42746 -55.86751 8971 ft 164 kts 75°
2026-04-30 03:16 66.42993 -55.83968 8972 ft 163 kts 75°
2026-04-30 03:16 66.43238 -55.81197 8974 ft 163 kts 75°
2026-04-30 03:17 66.43478 -55.78462 8973 ft 163 kts 75°
2026-04-30 03:17 66.43724 -55.75670 8970 ft 163 kts 75°
2026-04-30 03:17 66.43966 -55.72906 8970 ft 163 kts 75°
2026-04-30 03:17 66.44209 -55.70132 8969 ft 163 kts 75°
2026-04-30 03:18 66.44449 -55.67392 8970 ft 163 kts 75°
2026-04-30 03:18 66.44688 -55.64629 8971 ft 163 kts 75°
2026-04-30 03:18 66.44931 -55.61842 8968 ft 163 kts 75°
2026-04-30 03:18 66.45170 -55.59083 8970 ft 163 kts 75°
2026-04-30 03:19 66.45411 -55.56296 8968 ft 163 kts 75°
2026-04-30 03:19 66.45648 -55.53546 8967 ft 163 kts 75°
2026-04-30 03:19 66.45886 -55.50775 8966 ft 163 kts 75°
2026-04-30 03:19 66.46125 -55.48000 8985 ft 162 kts 75°
2026-04-30 03:20 66.46362 -55.45235 8991 ft 162 kts 75°
2026-04-30 03:20 66.46598 -55.42486 8990 ft 163 kts 75°
2026-04-30 03:20 66.46834 -55.39733 8994 ft 163 kts 75°
2026-04-30 03:20 66.47070 -55.36964 8989 ft 163 kts 75°
2026-04-30 03:21 66.47304 -55.34214 8990 ft 163 kts 76°
2026-04-30 03:21 66.47542 -55.31404 8989 ft 163 kts 76°
2026-04-30 03:21 66.47775 -55.28643 8984 ft 163 kts 76°
2026-04-30 03:21 66.48012 -55.25830 8980 ft 164 kts 76°
2026-04-30 03:22 66.48245 -55.23069 8982 ft 164 kts 76°
2026-04-30 03:22 66.48479 -55.20275 8978 ft 164 kts 76°
2026-04-30 03:22 66.48710 -55.17502 8974 ft 164 kts 76°
2026-04-30 03:22 66.48943 -55.14728 8976 ft 164 kts 75°
2026-04-30 03:23 66.49178 -55.11915 8976 ft 164 kts 76°
2026-04-30 03:23 66.49406 -55.09161 8975 ft 163 kts 76°
2026-04-30 03:23 66.49641 -55.06359 8975 ft 163 kts 76°
2026-04-30 03:23 66.49872 -55.03576 8976 ft 163 kts 76°
2026-04-30 03:24 66.50102 -55.00785 8972 ft 163 kts 76°
2026-04-30 03:24 66.50332 -54.98000 8975 ft 163 kts 76°
2026-04-30 03:24 66.50560 -54.95224 8976 ft 163 kts 76°
2026-04-30 03:24 66.50786 -54.92477 8975 ft 163 kts 76°
2026-04-30 03:25 66.51015 -54.89666 8971 ft 163 kts 76°
2026-04-30 03:25 66.51241 -54.86898 8972 ft 163 kts 76°
2026-04-30 03:25 66.51468 -54.84100 8969 ft 163 kts 76°
2026-04-30 03:25 66.51695 -54.81309 8969 ft 164 kts 75°
2026-04-30 03:26 66.51921 -54.78524 8963 ft 164 kts 76°
2026-04-30 03:26 66.52148 -54.75725 8965 ft 163 kts 76°
2026-04-30 03:26 66.52374 -54.72935 8963 ft 163 kts 76°
2026-04-30 03:26 66.52597 -54.70175 8970 ft 163 kts 76°
2026-04-30 03:27 66.52821 -54.67387 8965 ft 163 kts 76°
2026-04-30 03:27 66.53043 -54.64611 8967 ft 163 kts 76°
2026-04-30 03:27 66.53267 -54.61811 8970 ft 163 kts 76°
2026-04-30 03:27 66.53490 -54.59016 8967 ft 163 kts 76°
2026-04-30 03:28 66.53712 -54.56222 8966 ft 163 kts 76°
2026-04-30 03:28 66.53931 -54.53445 8967 ft 163 kts 76°
2026-04-30 03:28 66.54153 -54.50657 8963 ft 163 kts 76°
2026-04-30 03:28 66.54371 -54.47887 8966 ft 163 kts 76°
2026-04-30 03:29 66.54592 -54.45084 8964 ft 163 kts 76°
2026-04-30 03:29 66.54811 -54.42306 8964 ft 163 kts 76°
2026-04-30 03:29 66.55029 -54.39513 8968 ft 163 kts 76°
2026-04-30 03:29 66.55249 -54.36721 8965 ft 163 kts 76°
2026-04-30 03:30 66.55467 -54.33917 8967 ft 163 kts 77°
2026-04-30 03:30 66.55685 -54.31113 8964 ft 163 kts 77°
2026-04-30 03:30 66.55891 -54.28324 8971 ft 163 kts 78°
2026-04-30 03:30 66.56081 -54.25502 8975 ft 163 kts 78°
2026-04-30 03:31 66.56265 -54.22720 8974 ft 163 kts 78°
2026-04-30 03:31 66.56449 -54.19904 8973 ft 163 kts 78°
2026-04-30 03:31 66.56634 -54.17083 8969 ft 163 kts 78°
2026-04-30 03:31 66.56818 -54.14252 8964 ft 163 kts 78°
2026-04-30 03:32 66.57000 -54.11460 8973 ft 163 kts 78°
2026-04-30 03:32 66.57182 -54.08635 8965 ft 164 kts 78°
2026-04-30 03:32 66.57363 -54.05841 8968 ft 164 kts 78°
2026-04-30 03:32 66.57546 -54.03008 8969 ft 164 kts 78°
2026-04-30 03:33 66.57729 -54.00178 8966 ft 164 kts 78°
2026-04-30 03:33 66.57909 -53.97373 8972 ft 164 kts 78°
2026-04-30 03:33 66.58091 -53.94554 8975 ft 164 kts 78°
2026-04-30 03:33 66.58273 -53.91705 8975 ft 164 kts 79°
2026-04-30 03:34 66.58452 -53.88883 8961 ft 163 kts 79°
2026-04-30 03:34 66.58629 -53.86091 8972 ft 163 kts 79°
2026-04-30 03:34 66.58806 -53.83289 8977 ft 163 kts 79°
2026-04-30 03:34 66.58986 -53.80438 8980 ft 164 kts 79°
2026-04-30 03:35 66.59163 -53.77619 8971 ft 164 kts 79°
2026-04-30 03:35 66.59338 -53.74813 8974 ft 164 kts 79°
2026-04-30 03:35 66.59513 -53.71997 8977 ft 164 kts 78°
2026-04-30 03:35 66.59691 -53.69153 8983 ft 164 kts 78°
2026-04-30 03:36 66.59866 -53.66332 8977 ft 164 kts 78°
2026-04-30 03:36 66.60043 -53.63497 8962 ft 164 kts 78°
2026-04-30 03:36 66.60216 -53.60676 8974 ft 164 kts 78°
2026-04-30 03:36 66.60392 -53.57828 8989 ft 164 kts 78°
2026-04-30 03:37 66.60567 -53.54997 8967 ft 165 kts 78°
2026-04-30 03:37 66.60740 -53.52163 8966 ft 164 kts 78°
2026-04-30 03:37 66.60911 -53.49348 8962 ft 163 kts 79°
2026-04-30 03:37 66.61084 -53.46518 8958 ft 163 kts 79°
2026-04-30 03:38 66.61253 -53.43713 8979 ft 163 kts 79°
2026-04-30 03:38 66.61427 -53.40860 8972 ft 164 kts 79°
2026-04-30 03:38 66.61597 -53.38029 8975 ft 164 kts 79°
2026-04-30 03:38 66.61767 -53.35201 8966 ft 164 kts 79°
2026-04-30 03:39 66.61936 -53.32365 8972 ft 164 kts 80°
2026-04-30 03:39 66.62105 -53.29520 8972 ft 163 kts 79°
2026-04-30 03:39 66.62274 -53.26680 8976 ft 164 kts 79°
2026-04-30 03:39 66.62441 -53.23847 8963 ft 164 kts 79°
2026-04-30 03:40 66.62608 -53.21044 8954 ft 163 kts 79°
2026-04-30 03:40 66.62776 -53.18193 8939 ft 163 kts 79°
2026-04-30 03:40 66.62941 -53.15390 8927 ft 163 kts 80°
2026-04-30 03:40 66.63107 -53.12557 8919 ft 163 kts 80°
2026-04-30 03:41 66.63272 -53.09741 8912 ft 163 kts 80°
2026-04-30 03:41 66.63435 -53.06929 8905 ft 162 kts 80°
2026-04-30 03:41 66.63599 -53.04115 8912 ft 163 kts 80°
2026-04-30 03:41 66.63762 -53.01302 8894 ft 164 kts 80°
2026-04-30 03:42 66.63924 -52.98474 8879 ft 163 kts 80°
2026-04-30 03:42 66.64085 -52.95641 8878 ft 163 kts 80°
2026-04-30 03:42 66.64246 -52.92823 8865 ft 163 kts 80°
2026-04-30 03:42 66.64407 -52.90005 8865 ft 163 kts 79°
2026-04-30 03:43 66.64567 -52.87201 8859 ft 163 kts 79°
2026-04-30 03:43 66.64728 -52.84378 8855 ft 163 kts 79°
2026-04-30 03:43 66.64887 -52.81558 8847 ft 162 kts 79°
2026-04-30 03:43 66.65045 -52.78757 8840 ft 162 kts 79°
2026-04-30 03:44 66.65202 -52.75959 8837 ft 162 kts 79°
2026-04-30 03:44 66.65360 -52.73134 8860 ft 162 kts 80°
2026-04-30 03:44 66.65518 -52.70319 8865 ft 163 kts 80°
2026-04-30 03:44 66.65676 -52.67477 8867 ft 163 kts 80°
2026-04-30 03:45 66.65831 -52.64673 8875 ft 163 kts 80°
2026-04-30 03:45 66.65987 -52.61823 8888 ft 163 kts 80°
2026-04-30 03:45 66.66143 -52.58998 8898 ft 163 kts 80°
2026-04-30 03:45 66.66297 -52.56175 8909 ft 163 kts 80°
2026-04-30 03:46 66.66452 -52.53347 8921 ft 163 kts 80°
2026-04-30 03:46 66.66605 -52.50534 8940 ft 163 kts 80°
2026-04-30 03:46 66.66759 -52.47700 8934 ft 164 kts 80°
2026-04-30 03:46 66.66912 -52.44870 8933 ft 163 kts 80°
2026-04-30 03:47 66.67065 -52.42031 8944 ft 163 kts 80°
2026-04-30 03:47 66.67217 -52.39197 8944 ft 162 kts 80°
2026-04-30 03:47 66.67368 -52.36403 8951 ft 162 kts 80°
2026-04-30 03:47 66.67518 -52.33592 8958 ft 163 kts 81°
2026-04-30 03:48 66.67669 -52.30744 8978 ft 163 kts 81°
2026-04-30 03:48 66.67819 -52.27913 8982 ft 163 kts 81°
2026-04-30 03:48 66.67969 -52.25083 8966 ft 164 kts 81°
2026-04-30 03:48 66.68117 -52.22241 8965 ft 163 kts 81°
2026-04-30 03:49 66.68265 -52.19417 8969 ft 163 kts 81°
2026-04-30 03:49 66.68412 -52.16589 8962 ft 163 kts 81°
2026-04-30 03:49 66.68559 -52.13757 8969 ft 163 kts 81°
2026-04-30 03:49 66.68706 -52.10941 8963 ft 163 kts 81°
2026-04-30 03:50 66.68852 -52.08099 8967 ft 163 kts 81°
2026-04-30 03:50 66.68998 -52.05276 8978 ft 163 kts 81°
2026-04-30 03:50 66.69145 -52.02416 8948 ft 164 kts 81°
2026-04-30 03:50 66.69289 -51.99601 8956 ft 162 kts 81°
2026-04-30 03:51 66.69429 -51.96795 9010 ft 157 kts 82°
2026-04-30 03:51 66.69564 -51.94107 9017 ft 152 kts 81°
2026-04-30 03:51 66.69694 -51.91511 9017 ft 148 kts 81°
2026-04-30 03:51 66.69825 -51.88956 9052 ft 147 kts 81°
2026-04-30 03:52 66.69953 -51.86418 9076 ft 146 kts 81°
2026-04-30 03:52 66.70081 -51.83870 9049 ft 149 kts 81°
2026-04-30 03:52 66.70215 -51.81217 8881 ft 156 kts 81°
2026-04-30 03:52 66.70351 -51.78452 8716 ft 159 kts 82°
2026-04-30 03:53 66.70486 -51.75698 8547 ft 159 kts 82°
2026-04-30 03:53 66.70622 -51.72925 8361 ft 160 kts 82°
2026-04-30 03:53 66.70757 -51.70148 8183 ft 161 kts 82°
2026-04-30 03:53 66.70894 -51.67346 7992 ft 160 kts 82°
2026-04-30 03:54 66.71029 -51.64557 7833 ft 159 kts 82°
2026-04-30 03:54 66.71162 -51.61823 7672 ft 157 kts 82°
2026-04-30 03:54 66.71296 -51.59070 7451 ft 156 kts 82°
2026-04-30 03:54 66.71574 -51.56508 7285 ft 154 kts 51°
2026-04-30 03:55 66.72442 -51.54910 7139 ft 154 kts 30°
2026-04-30 03:55 66.73394 -51.53702 6945 ft 154 kts 25°
2026-04-30 03:55 66.74363 -51.52595 6851 ft 153 kts 24°
2026-04-30 03:55 66.75325 -51.51527 6718 ft 153 kts 24°
2026-04-30 03:56 66.76294 -51.50454 6623 ft 151 kts 24°
2026-04-30 03:56 66.77242 -51.49405 6533 ft 149 kts 24°
2026-04-30 03:56 66.78188 -51.48358 6397 ft 147 kts 25°
2026-04-30 03:56 66.79124 -51.47319 6249 ft 147 kts 25°
2026-04-30 03:57 66.80051 -51.46288 6153 ft 146 kts 24°
2026-04-30 03:57 66.80981 -51.45252 6032 ft 146 kts 24°
2026-04-30 03:57 66.81918 -51.44210 5928 ft 145 kts 25°
2026-04-30 03:57 66.82832 -51.43188 5733 ft 143 kts 24°
2026-04-30 03:58 66.83727 -51.42193 5604 ft 141 kts 24°
2026-04-30 03:58 66.84624 -51.41194 5500 ft 141 kts 24°
2026-04-30 03:58 66.85525 -51.40189 5377 ft 140 kts 24°
2026-04-30 03:58 66.86397 -51.39126 5250 ft 139 kts 38°
2026-04-30 03:59 66.86977 -51.37227 5135 ft 137 kts 56°
2026-04-30 03:59 66.87476 -51.35158 5031 ft 137 kts 60°
2026-04-30 03:59 66.87948 -51.33046 4901 ft 137 kts 61°
2026-04-30 03:59 66.88397 -51.30992 4830 ft 129 kts 61°
2026-04-30 04:00 66.88825 -51.29033 4711 ft 126 kts 61°
2026-04-30 04:00 66.89243 -51.27108 4596 ft 123 kts 61°
2026-04-30 04:00 66.89652 -51.25220 4476 ft 121 kts 62°
2026-04-30 04:00 66.89894 -51.23180 4363 ft 120 kts 63°
2026-04-30 04:01 66.90350 -51.21426 4263 ft 119 kts 58°
2026-04-30 04:01 66.90791 -51.19655 4147 ft 118 kts 59°
2026-04-30 04:01 66.91209 -51.17882 4060 ft 116 kts 60°
2026-04-30 04:01 66.91607 -51.16118 3967 ft 114 kts 60°
2026-04-30 04:02 66.91988 -51.14391 3955 ft 109 kts 61°
2026-04-30 04:02 66.92358 -51.12701 3833 ft 105 kts 62°
2026-04-30 04:02 66.92700 -51.11114 3662 ft 100 kts 62°
2026-04-30 04:02 66.93030 -51.09587 3512 ft 96 kts 62°
2026-04-30 04:03 66.93349 -51.08107 3361 ft 94 kts 62°
2026-04-30 04:03 66.93654 -51.06688 3227 ft 90 kts 62°
2026-04-30 04:03 66.93951 -51.05307 3090 ft 88 kts 62°
2026-04-30 04:03 66.94247 -51.03933 2952 ft 87 kts 62°
2026-04-30 04:04 66.94535 -51.02592 2818 ft 86 kts 62°
2026-04-30 04:04 66.94817 -51.01276 2689 ft 84 kts 62°
2026-04-30 04:04 66.95094 -50.99984 2562 ft 81 kts 62°
2026-04-30 04:04 66.95357 -50.98753 2453 ft 77 kts 62°
2026-04-30 04:05 66.95605 -50.97592 2343 ft 74 kts 61°
2026-04-30 04:05 66.95854 -50.96429 2240 ft 75 kts 60°
2026-04-30 04:05 66.96109 -50.95244 2133 ft 76 kts 61°
2026-04-30 04:05 66.96364 -50.94053 2025 ft 77 kts 61°
2026-04-30 04:06 66.96622 -50.92842 1912 ft 78 kts 61°
2026-04-30 04:06 66.96886 -50.91607 1792 ft 78 kts 61°
2026-04-30 04:06 66.97147 -50.90384 1682 ft 79 kts 61°
2026-04-30 04:06 66.97411 -50.89142 1571 ft 80 kts 61°
2026-04-30 04:07 66.97679 -50.87884 1455 ft 81 kts 60°
2026-04-30 04:07 66.97953 -50.86645 1341 ft 81 kts 59°
2026-04-30 04:07 66.98221 -50.85383 1231 ft 80 kts 61°
2026-04-30 04:08 66.98731 -50.82882 1030 ft 78 kts 62°
2026-04-30 04:08 66.98989 -50.81669 934 ft 77 kts 60°
2026-04-30 04:08 66.99249 -50.80487 854 ft 75 kts 61°
2026-04-30 04:08 66.99496 -50.79292 736 ft 78 kts 60°
2026-04-30 04:09 66.99751 -50.78068 615 ft 78 kts 60°
2026-04-30 04:09 67.00015 -50.76841 501 ft 76 kts 60°
2026-04-30 04:09 67.00263 -50.75695 393 ft 74 kts 59°
2026-04-30 04:09 67.00512 -50.74543 283 ft 74 kts 60°
2026-04-30 04:10 67.00736 -50.73471 205 ft 57 kts 59°
2026-04-30 04:10 67.00883 -50.72782 187 ft 29 kts 59°
2026-04-30 04:10 67.00960 -50.72411 182 ft 14 kts 65°
2026-04-30 04:10 67.00986 -50.72179 180 ft 16 kts 91°
2026-04-30 04:11 67.00920 -50.72066 178 ft 0 kts 152°
2026-04-30 04:12 67.00916 -50.72060 178 ft 2 kts 153°
2026-04-30 04:12 67.00888 -50.72023 177 ft 6 kts 152°
2026-04-30 04:12 67.00837 -50.71954 174 ft 10 kts 149°
2026-04-30 04:12 67.00817 -50.71792 174 ft 9 kts 70°
2026-04-30 04:13 67.00841 -50.71672 175 ft 5 kts 62°
2026-04-30 04:13 67.00855 -50.71602 176 ft 3 kts 61°
2026-04-30 04:13 67.00870 -50.71532 177 ft 5 kts 62°
2026-04-30 04:13 67.00894 -50.71417 178 ft 9 kts 62°
2026-04-30 04:14 67.00929 -50.71249 181 ft 12 kts 61°
2026-04-30 04:14 67.00970 -50.71048 184 ft 13 kts 61°
2026-04-30 04:14 67.01014 -50.70829 189 ft 14 kts 63°
2026-04-30 04:14 67.01057 -50.70612 195 ft 13 kts 62°
2026-04-30 04:15 67.01100 -50.70417 203 ft 11 kts 60°
2026-04-30 04:15 67.01122 -50.70234 208 ft 12 kts 92°
2026-04-30 04:15 67.01154 -50.70045 212 ft 9 kts 62°
2026-04-30 04:15 67.01179 -50.69926 216 ft 6 kts 61°
2026-04-30 04:16 67.01186 -50.69810 218 ft 7 kts 118°
2026-04-30 04:16 67.01183 -50.69739 218 ft 0 kts 63°
2026-04-30 04:16 67.01185 -50.69720 218 ft 1 kts 72°
2026-04-30 04:16 67.01185 -50.69717 218 ft 0 kts 59°
2026-04-30 04:17 67.01185 -50.69716 218 ft 1 kts 54°
2026-04-30 04:17 67.01186 -50.69714 218 ft 0 kts 53°